Wind_Speed
27 27 27 26 25 24 23 27 33 34 33 33 33 33 34 34 33 32 31 28 25 23 19 16 16 17 16 17 18 18 18 18 18 18 19 20 21 23 25 26 28 29 30 32 33 34 36 38 40 42 41 39 37 36 36 37 38 38 38 35 32 29 27 27 27 25 24 24 22 18 18 23 22 19 19 20 22 23 24 25 23 21 21 21 21 21 21
28 28 28 27 26 24 22 24 29 31 32 33 33 33 34 34 32 31 32 31 30 28 24 18 15 15 15 16 18 20 19 19 19 19 19 19 20 22 24 26 27 29 30 32 33 35 37 38 40 41 42 41 40 38 37 38 40 40 40 39 36 33 30 28 26 25 24 24 24 22 21 23 24 23 21 21 21 22 24 25 24 23 22 22 22 22 20
27 27 29 28 28 28 26 25 25 27 29 29 30 30 30 31 31 31 32 31 30 28 26 23 19 17 16 15 17 19 20 21 21 21 20 20 19 21 22 24 26 27 29 31 32 34 35 36 37 39 40 40 39 38 38 39 40 40 40 39 36 33 30 29 27 25 25 25 24 24 24 24 25 25 24 23 22 22 23 24 25 24 24 24 24 22 20
25 27 27 26 27 30 29 25 23 25 28 28 28 27 27 29 31 32 32 30 28 27 26 23 20 20 20 19 18 19 20 22 23 22 22 20 20 20 21 22 23 24 25 27 28 30 31 32 34 35 36 37 36 35 36 37 38 38 38 37 35 33 30 29 30 28 27 26 25 24 25 24 24 25 25 24 24 24 23 24 25 25 26 25 24 23 23
26 27 26 24 26 29 29 26 23 24 26 28 27 25 25 28 30 31 31 28 26 25 24 22 20 20 21 22 21 21 21 22 23 23 23 21 20 21 21 21 22 22 22 23 24 26 27 29 31 32 33 34 34 33 34 36 37 37 37 36 34 33 32 30 29 27 26 24 23 22 24 23 23 25 24 24 26 25 24 25 27 27 26 24 23 25 27
25 26 25 23 26 29 29 27 24 24 25 27 26 23 22 25 29 32 34 31 27 26 25 23 22 22 21 22 22 22 22 23 23 23 23 22 21 21 21 22 21 21 22 22 23 25 25 27 29 30 31 31 31 32 33 34 34 33 35 37 33 31 34 33 28 26 25 24 21 22 24 23 23 24 24 24 26 25 25 26 27 28 26 24 26 28 29
25 26 26 23 23 26 28 27 25 25 26 27 27 25 23 24 26 29 32 31 29 27 26 26 25 23 23 23 23 22 23 23 23 23 23 22 21 21 21 22 22 22 22 23 23 24 25 25 26 27 28 28 28 29 29 29 28 26 31 38 36 31 33 31 26 24 26 26 25 25 26 25 23 23 25 26 26 26 26 26 26 27 27 27 28 28 28
25 26 27 24 22 22 23 23 23 23 24 26 28 26 24 24 24 26 28 28 27 27 28 28 26 24 24 24 24 24 24 23 23 23 23 22 22 21 21 23 23 23 24 24 24 25 25 24 23 24 25 24 24 25 24 22 23 26 31 34 32 29 29 26 22 21 24 25 25 26 26 25 24 23 24 26 26 26 27 27 26 26 27 28 28 27 27
26 25 25 22 20 20 20 20 21 21 21 23 25 25 24 24 24 24 25 26 27 27 28 29 28 27 26 25 24 25 24 24 23 23 23 23 23 22 22 23 23 24 24 24 24 25 25 24 23 23 23 22 21 21 19 18 20 26 30 27 23 26 31 32 28 25 26 28 27 27 27 28 27 26 26 27 28 27 27 27 27 26 26 27 27 27 27
26 24 24 23 18 16 17 18 19 19 19 19 22 23 23 23 23 22 22 23 25 26 28 30 30 28 27 25 25 25 25 24 24 23 24 24 24 23 22 22 23 24 24 24 25 26 25 24 24 23 23 23 21 19 19 18 17 19 23 21 18 22 29 33 29 25 28 32 32 31 32 32 31 30 29 30 29 28 26 26 26 26 25 26 26 27 28
26 25 24 23 17 15 17 19 18 18 19 18 20 22 21 21 21 20 19 19 20 22 25 28 29 27 25 25 25 25 25 25 25 25 25 24 24 24 24 23 23 23 24 25 25 25 25 24 25 24 23 23 23 21 20 21 19 15 16 20 20 20 24 29 29 28 30 32 33 34 34 34 34 33 32 30 29 28 27 27 26 25 25 27 27 27 28
25 27 26 22 17 15 16 18 18 18 19 19 20 20 20 19 18 17 17 16 15 17 21 26 28 26 25 24 24 25 25 25 25 26 26 25 24 25 26 25 24 24 24 25 25 25 24 24 25 25 24 23 23 23 22 21 20 17 14 17 22 24 26 28 30 31 32 32 32 33 34 34 34 35 34 32 31 30 28 28 27 26 27 29 29 27 25
24 27 28 24 19 16 14 15 17 19 18 18 19 18 18 18 17 15 15 15 15 15 17 22 26 28 27 26 25 25 26 26 27 27 27 27 26 26 27 27 26 26 25 25 26 26 25 24 25 25 25 24 22 22 22 20 19 17 15 14 15 19 23 27 30 33 35 36 35 35 34 32 32 32 32 33 33 31 28 26 26 25 26 28 27 26 25
25 25 27 26 22 18 15 13 15 19 19 18 18 17 17 17 17 16 16 15 15 16 16 19 23 26 28 28 27 27 27 28 28 28 28 29 28 28 28 27 26 26 25 24 26 27 26 25 25 25 25 24 22 22 21 20 19 17 15 14 13 12 14 18 22 25 30 35 36 33 29 27 27 28 30 31 31 30 27 25 25 25 26 27 27 27 27
24 23 24 24 21 19 18 15 14 16 19 19 18 17 16 16 17 17 18 17 17 17 17 18 20 23 26 28 29 30 30 30 30 29 29 29 29 28 28 28 27 27 26 25 25 26 26 25 25 25 24 23 22 22 22 21 20 19 18 17 17 15 13 14 15 17 20 25 28 27 26 25 25 27 28 28 27 26 26 26 27 27 28 28 28 28 28
22 22 22 21 19 17 16 15 14 15 17 18 19 18 18 17 17 17 18 19 19 19 19 19 19 21 23 26 27 29 30 31 31 30 29 29 29 29 29 29 28 28 27 26 26 26 25 24 24 25 24 23 22 22 22 22 21 20 20 20 21 22 21 20 19 19 19 20 21 22 23 24 25 25 25 25 23 23 25 27 28 29 29 29 29 28 27
21 20 18 18 18 16 14 13 13 14 14 15 16 17 17 18 17 17 18 19 20 21 21 21 21 22 23 24 26 27 27 27 27 27 27 28 29 29 29 29 28 27 28 28 27 26 25 23 22 23 23 23 22 22 23 23 22 21 21 21 22 23 24 23 22 22 22 22 23 24 25 25 26 26 25 25 23 23 24 26 27 29 30 30 30 29 29
20 21 19 16 14 13 12 12 12 12 12 13 13 14 15 15 16 16 17 18 18 19 20 20 20 21 22 23 25 26 27 26 25 24 24 26 27 28 28 28 27 27 29 30 29 28 27 25 22 22 23 24 23 24 26 25 24 24 24 24 24 25 25 24 24 23 23 23 25 26 28 28 29 29 29 28 28 29 29 29 30 31 31 31 32 32 32
19 19 20 16 12 10 10 10 9 10 10 10 10 11 11 12 13 14 15 16 16 17 17 17 17 18 20 21 23 25 26 27 27 26 26 27 28 29 29 29 29 30 32 32 31 30 29 28 26 24 25 28 30 31 31 29 26 26 27 27 27 27 27 27 26 26 25 25 26 27 28 30 31 32 32 31 32 32 33 34 35 34 34 34 35 35 36
15 13 12 10 8 7 7 6 6 7 7 7 7 8 9 10 11 12 13 14 15 16 17 18 18 17 18 19 21 23 24 25 26 26 27 28 28 29 29 29 30 31 31 31 31 31 31 30 29 28 27 29 31 33 34 32 29 27 27 28 30 30 31 31 30 29 28 28 28 28 29 30 32 33 34 35 34 34 35 36 36 36 36 37 37 38 39
11 10 8 7 6 5 5 5 5 6 7 8 9 10 10 11 11 12 13 14 14 15 16 16 17 17 17 17 17 19 20 21 23 24 25 26 27 27 28 28 29 29 29 29 30 31 32 32 32 31 31 31 31 32 33 34 34 32 31 31 31 32 33 34 34 32 30 30 30 30 30 30 31 33 34 35 34 34 35 36 37 37 37 38 38 39 40
9 8 7 5 4 3 3 4 5 7 8 10 11 13 14 14 15 15 16 17 18 18 19 19 19 18 18 18 17 18 20 22 23 23 24 24 25 26 27 27 28 28 28 28 29 29 30 31 31 32 33 33 33 34 34 34 35 35 35 34 34 33 34 35 36 34 33 33 33 33 33 33 33 34 35 35 35 35 36 37 38 39 39 40 41 41 41
6 6 5 3 3 3 4 5 7 8 9 11 12 14 15 17 18 19 19 20 21 22 23 24 24 24 23 23 22 22 23 24 24 25 25 25 25 25 25 26 27 27 28 28 29 30 30 31 31 31 31 32 32 33 33 33 34 34 35 35 35 35 35 36 36 36 36 36 36 37 37 38 38 39 40 40 40 40 40 41 41 42 43 43 44 44 44
6 4 4 3 3 3 4 5 6 8 9 10 11 13 15 17 19 20 22 23 25 26 27 27 28 29 29 29 28 29 29 28 28 27 27 27 26 26 26 26 27 27 28 29 29 30 31 32 32 32 32 32 32 32 32 32 32 33 33 34 34 34 35 35 36 36 36 37 38 39 40 41 41 42 43 43 44 44 43 43 43 43 43 43 43 43 42
6 4 4 3 3 2 3 4 4 5 6 8 10 12 14 16 18 21 23 25 27 29 30 31 32 32 33 32 32 32 33 33 33 33 32 31 30 29 29 28 28 28 29 30 30 30 30 31 31 32 32 32 32 32 32 33 33 33 34 34 34 34 34 34 34 34 34 35 35 36 37 38 39 40 40 41 41 41 41 40 40 39 39 39 39 39 39
4 3 2 1 0 1 2 3 5 6 8 10 12 14 16 19 21 23 24 26 27 29 31 33 34 36 36 36 35 34 34 35 36 36 36 36 35 35 34 33 33 32 32 32 32 32 32 31 32 32 33 33 34 34 34 34 34 35 35 35 35 35 35 35 35 35 34 35 35 35 35 36 36 36 37 37 37 37 37 37 37 37 37 37 38 38 38
4 5 5 5 6 7 8 9 10 11 12 13 15 16 19 21 23 25 26 26 26 27 28 29 31 33 35 37 38 37 36 35 36 37 37 37 37 37 37 37 37 37 37 37 36 36 35 35 34 35 36 36 37 37 37 37 36 37 37 37 37 37 37 37 37 36 36 36 37 37 36 37 37 37 37 37 37 37 38 38 39 38 39 39 40 40 40
7 7 7 8 9 11 12 13 14 15 16 16 17 18 20 22 24 25 26 26 25 24 24 24 25 27 29 31 34 35 36 36 36 37 38 38 38 38 38 39 39 39 40 40 40 40 39 38 38 37 38 38 38 38 39 39 39 38 39 39 39 39 39 39 39 39 39 39 40 40 40 40 40 40 41 41 41 41 42 42 42 42 42 42 43 42 43
7 8 9 10 11 12 13 14 15 16 17 18 18 20 21 22 24 25 25 25 24 23 22 22 23 23 24 25 26 28 30 31 33 34 36 38 39 39 40 40 40 40 40 41 41 42 42 41 40 40 39 38 38 37 37 38 39 40 39 39 39 40 41 41 41 42 42 42 42 42 43 43 43 43 43 43 43 44 44 44 44 44 44 44 45 45 45
7 8 9 10 11 12 12 13 14 15 16 17 18 19 20 22 24 25 25 24 23 22 21 21 20 20 20 21 21 22 23 24 26 27 30 32 35 37 39 40 41 42 42 42 42 42 43 43 43 42 41 40 39 38 37 37 37 38 38 38 38 39 39 39 40 41 41 42 42 43 43 43 43 43 43 43 43 43 43 44 44 44 44 44 45 45 45
8 9 10 11 11 12 13 14 15 16 17 18 18 19 20 21 23 25 25 25 23 22 21 20 20 19 19 19 19 20 20 21 22 23 24 26 28 30 32 35 37 39 41 42 43 43 43 43 44 44 44 43 42 41 41 40 39 39 38 37 37 37 37 37 37 38 38 38 39 39 40 40 40 40 41 41 42 42 42 42 42 42 42 42 42 43 43
10 10 11 12 13 13 14 15 16 17 17 18 18 19 20 21 23 25 26 26 25 24 22 21 21 21 20 21 21 21 21 21 22 22 23 23 24 25 26 27 29 32 34 36 39 41 42 43 44 44 45 45 45 45 44 43 43 43 42 40 39 38 38 38 38 37 37 36 36 37 37 37 37 37 37 38 38 38 39 39 39 39 39 39 39 40 40
10 11 12 13 13 14 15 16 17 17 18 18 18 19 20 21 22 24 26 26 26 25 23 22 22 22 22 22 22 23 23 22 22 23 23 23 24 24 25 25 25 26 27 29 31 33 35 37 40 41 43 45 46 47 47 47 46 46 45 44 43 42 41 40 40 39 38 38 37 37 36 36 35 35 35 35 35 35 36 36 36 36 36 37 37 37 37
11 12 13 14 15 16 16 17 17 18 18 18 18 19 19 20 22 23 25 26 26 25 25 24 22 22 22 22 22 23 23 23 23 23 23 23 23 24 24 25 25 25 25 25 25 27 28 29 31 34 36 38 41 43 45 46 47 47 47 46 46 46 44 43 42 42 41 41 40 39 38 37 36 36 36 35 35 35 35 35 35 35 35 35 36 36 36
12 12 13 14 15 17 17 18 18 18 18 18 18 18 19 20 21 22 24 24 25 26 26 25 23 22 22 22 22 23 23 24 24 24 24 24 24 24 24 24 24 24 25 24 24 24 25 25 25 26 28 30 32 35 37 39 41 43 44 45 46 47 46 45 44 43 43 43 42 41 40 40 39 38 38 37 37 36 36 36 36 36 35 35 35 35 35
12 12 13 14 16 17 18 18 18 18 18 18 18 18 18 19 20 22 23 24 24 25 25 25 24 23 23 23 23 23 24 24 24 24 24 24 24 24 23 23 23 24 24 24 24 24 24 24 24 23 23 24 26 27 29 30 32 34 37 39 41 44 45 46 45 44 44 43 43 42 42 41 40 40 39 39 38 38 37 37 36 36 35 35 34 34 33
12 12 13 14 16 17 17 18 18 18 18 18 18 18 18 19 20 21 22 24 24 25 25 26 25 23 23 23 24 24 24 24 24 24 24 24 24 24 24 23 23 23 24 24 23 23 23 24 23 23 23 23 24 24 24 24 25 26 28 31 34 36 39 41 43 43 43 42 42 42 43 42 41 40 40 39 39 38 38 37 37 36 35 35 34 33 32
12 13 13 14 15 16 17 17 17 17 18 18 18 18 18 19 20 21 22 23 24 25 25 26 26 25 25 24 24 24 25 24 24 24 24 24 25 24 24 24 23 22 23 22 22 22 22 22 22 22 22 21 22 22 22 22 21 22 23 25 27 29 32 34 37 38 39 39 40 40 41 41 40 40 39 39 38 38 38 37 36 36 35 34 34 33 33
11 12 13 14 15 15 16 16 17 17 18 18 18 18 19 19 20 21 22 23 24 25 25 25 25 25 25 25 26 26 25 25 25 25 24 24 24 24 24 23 22 20 21 21 20 20 20 20 20 20 20 20 20 20 20 20 20 20 21 22 24 26 28 30 32 33 34 35 37 38 38 38 38 38 38 37 37 37 36 36 36 35 34 34 33 33 33
10 11 12 13 15 15 17 18 18 19 19 19 19 19 19 20 20 21 22 23 24 24 25 25 25 25 25 26 27 26 25 25 25 25 24 24 23 22 22 22 20 19 19 20 20 19 18 18 18 18 18 18 18 19 19 20 20 21 21 21 23 24 26 27 28 30 32 33 34 35 35 35 35 36 36 35 35 35 35 34 34 34 33 33 32 31 31
11 12 14 15 16 17 18 20 20 20 20 21 21 21 21 21 21 22 23 23 24 24 25 25 25 25 25 26 26 26 26 25 24 24 24 23 22 20 19 20 20 18 18 19 19 19 18 18 17 17 17 16 17 17 18 19 21 22 21 21 22 23 24 24 25 26 28 30 31 32 32 32 33 33 33 33 33 32 32 32 31 30 30 29 28 27 26
12 13 15 16 17 18 19 20 21 21 22 22 22 21 22 22 23 23 24 24 24 25 25 25 26 26 26 26 26 26 26 26 24 23 23 22 21 19 19 20 20 19 18 18 18 18 17 17 16 16 16 16 16 16 16 18 20 21 22 22 22 23 23 24 24 25 26 27 28 29 29 29 29 30 29 29 29 29 28 28 27 26 25 24 23 23 22
12 13 15 16 17 18 19 20 21 22 22 22 22 22 22 23 23 24 24 24 25 25 25 26 26 26 26 26 26 26 26 25 24 23 23 22 19 17 17 19 21 21 19 18 17 16 16 15 15 14 14 14 14 14 15 16 18 20 21 22 22 23 23 24 25 25 26 26 26 27 27 27 26 26 26 26 26 25 25 24 23 22 21 21 21 21 21
12 13 15 16 17 18 20 20 21 22 22 23 23 23 23 23 24 24 25 25 25 25 26 26 26 26 26 26 26 26 25 23 22 22 23 22 19 16 16 18 21 21 19 17 16 16 15 14 14 13 13 13 13 13 13 14 15 17 18 20 21 21 22 23 24 24 24 24 24 25 25 25 24 24 25 24 24 23 23 22 21 20 20 20 21 21 21
13 14 16 17 18 19 20 21 22 22 22 23 23 24 24 24 24 25 25 25 25 25 26 26 26 26 27 26 26 25 24 23 22 21 20 18 18 18 18 20 21 20 18 17 16 15 14 14 14 14 13 13 13 13 13 13 13 14 15 17 18 19 20 20 21 21 22 22 23 24 24 24 23 23 23 23 23 22 22 21 20 20 20 21 21 22 21
14 15 17 18 19 20 21 21 22 23 23 23 24 24 24 24 24 25 25 25 25 26 26 26 26 27 27 26 26 25 23 23 23 22 20 17 18 19 19 19 19 19 19 18 17 15 15 14 14 14 14 15 14 14 14 13 13 13 13 13 15 16 17 18 18 19 20 21 21 21 22 23 23 22 22 22 22 22 21 21 20 20 21 22 22 22 22
16 17 18 19 20 21 22 22 23 23 24 24 24 24 24 24 25 25 25 25 25 26 26 26 26 26 26 26 25 25 24 24 24 23 20 18 19 20 20 21 23 23 22 20 18 16 15 15 16 16 16 16 16 16 16 15 14 14 13 13 12 13 14 15 16 17 17 18 18 19 20 21 22 22 21 21 21 21 21 21 21 22 22 23 23 23 23
17 18 19 20 21 22 23 24 24 24 25 25 25 24 24 25 25 25 25 25 25 26 26 26 26 26 25 25 25 25 25 24 24 23 21 21 21 21 22 24 26 27 25 23 21 19 18 18 18 18 18 18 18 18 18 17 16 16 15 14 13 12 12 13 14 15 16 16 17 17 18 20 21 21 21 20 20 21 22 23 23 23 23 24 24 24 24
19 19 20 20 22 23 24 25 25 25 26 26 26 25 25 25 25 25 25 25 25 26 26 26 26 26 26 26 26 26 25 24 23 22 23 23 22 22 22 23 24 25 25 24 23 22 22 22 21 21 21 20 19 19 19 19 19 18 17 16 16 15 14 13 13 14 16 17 17 17 17 18 19 20 21 21 21 22 24 25 25 25 25 25 26 25 25
20 20 20 21 22 23 25 26 26 26 26 27 27 26 26 26 26 26 25 25 25 25 26 26 26 26 26 26 26 26 26 25 23 21 22 23 24 25 25 26 25 25 26 25 24 23 23 23 23 23 23 22 22 21 20 20 20 20 19 18 18 17 16 16 15 14 15 16 17 18 19 19 19 19 20 22 23 24 24 25 26 27 27 26 26 26 25
20 20 21 22 23 24 25 26 27 27 27 28 27 27 26 26 26 26 26 26 25 26 26 27 27 26 27 27 26 26 26 26 24 22 23 26 28 28 29 29 28 26 24 23 23 23 23 23 23 23 24 24 23 23 22 21 21 21 21 20 20 19 19 18 18 17 16 16 16 16 18 20 21 21 21 22 24 26 25 25 25 26 27 27 26 25 24
20 20 21 22 23 25 26 26 27 28 28 29 29 28 28 27 27 27 27 26 26 26 26 27 27 27 27 27 27 27 26 26 25 25 26 28 29 29 30 29 28 25 23 22 22 22 22 22 23 24 24 24 23 22 22 22 22 22 22 21 21 21 21 21 20 19 19 19 18 17 16 17 19 21 22 23 24 26 26 26 25 26 27 27 26 25 24
Wind_Direction
243 241 240 239 238 243 248 243 238 237 236 237 238 240 243 244 247 252 251 248 252 257 257 251 247 253 257 252 247 242 239 242 244 247 249 251 252 253 252 250 249 250 250 250 249 249 251 252 255 258 261 262 264 265 268 272 274 275 275 273 273 274 269 265 266 268 263 255 252 250 231 219 223 236 242 241 242 240 235 233 235 239 244 244 242 242 244
242 242 240 239 238 243 251 246 240 239 240 240 240 240 242 245 249 252 253 254 259 260 257 254 252 256 260 255 247 244 241 238 240 243 246 248 253 255 257 256 255 254 254 253 252 252 253 255 257 260 263 265 267 268 270 272 273 274 275 275 273 272 268 264 261 257 254 250 245 241 234 226 229 239 245 246 245 241 235 233 235 239 243 241 239 239 242
239 241 243 244 244 246 252 251 243 242 243 243 242 241 243 244 247 253 255 255 257 257 256 256 256 253 255 253 244 242 241 237 237 240 241 244 248 253 257 259 259 259 259 258 258 258 259 261 262 263 265 266 268 269 271 271 271 273 276 275 272 267 265 263 257 250 249 249 245 239 234 229 231 239 245 246 244 242 238 236 237 240 241 240 239 239 241
235 238 241 244 245 245 248 249 246 244 246 248 247 245 245 245 245 251 255 254 253 255 255 254 251 248 249 248 241 240 241 237 236 238 239 241 244 249 254 256 257 259 260 261 263 263 265 266 266 267 268 268 269 269 268 268 269 271 273 272 270 266 264 262 256 249 246 246 245 238 229 227 236 245 249 248 245 243 243 242 240 239 240 242 243 242 243
234 235 236 240 244 244 244 246 247 247 248 250 250 248 248 247 245 247 251 252 253 254 252 249 245 242 243 242 242 244 244 240 237 238 240 242 244 247 251 253 255 256 257 258 260 262 264 266 267 268 268 268 269 268 268 269 270 270 270 269 266 263 263 261 252 244 241 241 242 236 229 232 242 247 249 249 248 246 246 246 243 241 243 245 244 242 243
235 233 232 237 242 242 242 244 247 249 250 250 251 250 250 250 248 246 247 250 253 253 251 247 243 240 239 240 242 244 245 243 240 240 243 245 245 247 249 252 255 255 255 255 256 258 262 265 268 269 268 269 269 268 271 272 271 270 269 265 259 256 256 249 237 235 241 243 241 236 237 244 247 246 246 246 248 249 250 247 244 244 246 246 243 242 244
236 232 229 236 245 247 245 245 247 252 252 251 251 252 252 253 252 250 249 250 251 250 249 247 245 243 241 239 239 241 244 245 243 243 246 247 248 247 248 251 253 254 255 255 255 258 260 263 268 269 270 271 270 270 272 273 268 257 246 244 245 247 246 235 224 230 240 241 241 241 241 244 247 249 249 246 248 252 250 246 245 246 247 247 245 245 247
235 233 231 236 247 252 250 247 247 250 251 249 248 249 251 252 252 251 250 250 250 248 247 246 245 244 242 240 240 242 244 245 244 245 247 248 250 249 249 251 252 253 255 256 258 260 261 263 266 268 269 270 272 274 272 264 253 235 222 224 228 227 224 221 221 232 235 233 236 239 239 243 250 257 252 244 247 252 249 247 248 250 249 248 248 249 251
232 232 229 232 242 249 249 246 244 244 247 246 243 242 245 248 250 251 251 251 250 249 248 247 246 244 243 242 241 243 245 246 246 246 247 248 250 251 252 253 253 253 255 257 260 262 263 264 266 268 269 269 271 274 266 249 234 224 220 221 213 204 213 226 235 240 238 234 232 234 239 246 252 256 254 249 252 254 251 251 252 252 252 252 253 253 255
229 227 222 223 233 244 245 243 241 241 241 240 239 239 240 244 249 252 254 255 254 250 248 247 247 245 244 244 243 243 246 248 247 247 247 248 250 252 253 254 254 255 257 258 260 262 263 265 267 269 271 270 271 273 264 253 242 223 214 213 200 192 206 219 222 223 230 235 236 238 243 248 251 253 253 253 256 256 253 254 254 253 255 255 254 253 254
228 225 220 221 233 249 250 244 241 238 235 234 236 237 238 242 247 252 256 259 260 253 247 246 247 248 246 243 241 242 245 248 249 249 249 249 252 254 254 254 254 255 257 259 261 262 262 263 265 269 271 272 275 276 271 265 263 246 217 210 210 208 209 211 212 217 227 235 239 241 244 246 247 249 249 249 252 251 249 250 252 254 255 253 249 250 253
232 231 229 229 235 248 246 235 227 227 228 231 235 235 236 240 244 249 253 257 260 256 248 244 245 247 246 244 242 243 246 249 252 253 253 253 253 255 255 254 253 254 257 260 262 262 261 260 263 266 270 272 276 278 277 274 273 272 254 228 220 220 220 222 225 228 229 232 236 242 244 241 237 239 242 243 243 243 243 246 250 251 248 245 245 248 251
233 232 233 232 234 243 240 224 219 222 224 229 234 235 236 238 241 246 250 252 255 255 250 244 242 243 245 246 244 245 248 251 253 255 255 254 254 254 254 254 254 255 257 259 261 262 262 259 260 264 267 269 272 274 274 275 277 279 278 264 242 229 226 229 232 232 231 232 237 242 242 233 226 227 233 235 235 237 240 243 244 242 239 240 243 248 250
230 229 230 230 233 241 244 233 228 228 229 232 238 240 240 239 240 243 246 249 252 253 252 248 243 242 245 247 246 246 250 253 255 253 253 253 253 253 254 254 255 256 257 258 260 263 263 260 258 260 262 264 265 265 265 268 272 274 272 269 257 238 225 227 231 232 231 231 232 232 227 220 216 218 223 227 230 233 237 240 242 242 243 245 247 249 252
229 227 226 225 228 236 241 241 240 237 236 239 243 245 247 246 244 246 248 250 253 254 255 255 251 245 245 246 248 249 250 253 256 254 250 250 251 253 255 257 257 256 256 257 260 265 267 265 260 257 256 256 257 259 260 261 263 264 261 258 255 249 242 238 235 230 224 221 220 218 213 213 215 217 219 224 229 234 240 244 247 248 249 250 250 251 252
225 224 222 225 229 234 236 239 241 242 242 244 246 249 252 253 252 252 253 254 256 257 258 260 259 253 247 246 249 252 252 254 257 257 254 251 252 255 257 260 260 259 257 256 257 260 263 264 263 260 257 255 254 255 258 259 258 257 255 255 256 255 257 259 257 253 247 239 233 229 226 226 228 227 227 229 233 241 247 249 249 250 250 251 252 252 252
216 216 217 222 225 228 231 235 239 243 245 246 248 251 253 255 255 256 257 258 258 259 260 261 260 256 249 244 244 246 247 249 254 258 258 257 258 260 262 264 267 268 267 264 261 259 258 258 258 257 256 257 259 258 256 255 255 255 255 255 256 257 258 260 261 261 261 258 255 251 247 244 243 242 240 237 235 237 241 245 248 251 252 253 254 254 253
209 211 217 223 223 224 229 235 238 242 243 243 245 248 249 252 254 255 256 257 257 256 258 260 261 258 253 249 245 242 241 242 246 251 255 258 261 264 266 268 269 268 267 265 264 263 264 262 256 248 243 243 248 253 255 254 254 255 257 257 257 258 261 262 263 263 263 263 261 258 254 251 249 249 248 246 242 238 239 243 249 253 255 255 255 255 253
207 211 220 227 226 222 223 227 230 235 239 241 245 249 252 256 258 259 260 261 259 257 257 259 262 259 255 253 250 246 244 244 245 248 250 252 255 258 260 261 260 257 255 255 255 258 261 262 260 253 243 236 236 242 248 251 252 254 258 260 261 261 263 264 266 267 266 265 265 263 260 256 253 250 249 249 247 245 245 248 251 253 255 254 254 254 254
192 191 195 200 199 200 208 216 226 236 241 244 250 257 263 265 265 266 268 268 265 263 261 262 263 261 257 251 245 242 240 240 241 242 243 245 246 248 249 250 250 249 247 247 248 250 252 254 255 255 251 246 244 245 246 246 245 246 251 257 263 266 267 267 267 269 269 269 267 266 265 262 257 254 252 251 250 250 250 251 252 253 253 254 255 256 256
156 153 155 163 170 182 200 218 235 247 252 258 265 272 278 279 276 273 272 271 268 265 264 262 259 255 252 247 239 234 232 231 231 232 233 234 236 238 239 240 241 242 242 242 244 245 247 248 249 250 251 251 251 251 251 250 248 247 247 251 256 259 262 264 266 266 266 266 265 265 264 261 257 253 252 251 250 250 251 252 254 254 254 254 254 255 256
134 139 146 159 173 193 224 242 255 264 267 271 276 281 286 289 288 286 283 280 278 274 272 270 264 257 251 245 239 234 232 231 231 232 232 233 233 234 235 237 239 240 241 241 242 242 244 245 246 246 247 248 248 249 249 251 252 252 252 254 255 255 256 258 262 262 262 261 261 261 259 256 252 248 246 245 243 243 244 248 252 254 255 255 255 256 257
131 143 154 179 210 235 255 264 272 279 281 284 287 290 293 294 295 294 292 289 286 283 280 277 274 270 265 259 253 248 244 241 240 241 242 244 244 243 242 243 243 244 245 246 245 244 244 244 245 245 245 245 245 245 246 247 249 251 252 253 254 255 254 254 256 258 258 257 256 256 255 253 249 246 244 244 245 245 246 248 251 254 255 256 257 258 259
132 147 161 190 220 244 262 273 282 287 290 292 294 295 296 295 294 294 293 291 289 287 284 282 279 277 274 270 266 263 260 255 251 250 250 251 252 251 250 248 247 247 248 248 249 249 248 247 247 247 247 247 247 248 248 248 248 249 249 250 250 251 252 252 253 254 254 253 252 251 251 251 250 249 249 249 250 252 254 256 257 257 258 259 259 260 262
135 145 156 182 212 238 258 273 287 294 299 304 306 306 307 306 303 300 295 292 289 287 285 283 281 279 278 276 273 272 270 266 263 261 259 257 255 253 251 249 247 246 246 246 246 247 248 249 249 250 250 251 252 253 255 255 254 253 253 252 252 252 253 252 252 253 254 254 254 253 253 253 253 253 254 255 256 258 260 261 262 263 263 264 264 265 266
117 114 114 116 23 339 326 321 321 318 318 319 321 323 324 321 318 314 307 300 293 288 284 282 279 278 278 277 277 276 274 272 270 269 267 266 264 261 258 255 253 250 249 248 248 248 249 250 250 251 253 255 256 257 258 258 258 258 258 257 257 257 257 258 258 258 259 259 259 259 259 260 260 260 260 261 262 263 263 264 265 266 267 267 268 268 269
53 37 23 7 352 340 330 324 319 316 314 314 317 322 325 325 324 322 318 312 305 297 290 285 281 279 277 276 276 277 276 274 272 271 271 271 270 268 266 264 261 259 257 256 255 255 256 257 257 258 258 260 261 262 262 260 258 258 258 258 258 259 259 260 260 261 262 262 262 263 263 263 264 264 265 265 265 266 266 266 267 268 268 269 269 270 271
6 355 345 335 328 322 317 312 309 307 307 308 311 316 321 325 327 327 326 322 317 310 303 297 291 287 283 279 278 277 277 276 274 273 272 272 272 271 271 270 268 266 264 262 261 260 260 261 261 262 263 263 264 265 266 265 263 261 259 259 259 260 261 261 262 262 263 264 264 265 265 266 266 266 266 267 267 268 268 268 269 269 270 271 271 272 272
336 329 321 316 312 310 308 306 305 305 306 308 311 314 319 323 328 332 333 331 326 320 315 309 303 298 293 289 285 283 281 279 276 274 273 272 271 271 271 271 271 270 269 267 266 265 264 264 263 263 263 264 264 264 265 266 266 266 265 264 263 263 263 263 264 265 265 266 267 267 267 267 267 268 268 268 268 269 269 270 270 271 271 272 272 273 273
316 313 310 307 305 304 304 305 308 311 312 312 313 315 319 325 330 334 337 336 333 328 323 317 311 305 300 297 294 291 289 286 282 278 275 273 271 270 270 270 270 270 270 270 269 268 267 266 266 265 265 265 264 264 263 263 263 264 265 266 267 267 267 266 266 266 266 266 267 267 267 267 266 267 267 268 268 269 269 270 270 271 271 272 273 273 274
311 311 310 308 308 309 312 315 317 316 315 315 316 319 323 327 331 335 339 340 338 336 331 327 323 319 314 308 304 299 296 294 291 288 284 281 277 274 272 270 269 269 269 269 269 269 268 267 267 266 266 266 265 265 264 263 262 262 262 263 264 265 266 267 267 267 267 266 266 266 266 265 265 265 265 265 266 267 268 269 269 270 270 271 272 273 274
312 313 313 315 316 318 319 319 318 316 316 318 321 324 327 331 334 336 339 341 342 341 338 334 332 329 326 322 317 312 307 303 299 295 293 290 287 284 281 278 275 273 271 269 269 269 268 268 267 266 266 265 265 264 264 264 264 263 263 262 262 262 263 264 264 265 265 265 265 265 265 264 264 264 263 263 263 264 265 266 267 267 268 269 270 271 272
312 313 315 318 320 319 318 317 316 317 319 322 324 326 330 334 337 338 340 341 343 342 340 338 335 333 331 328 324 320 316 312 308 303 299 297 295 293 291 288 285 281 278 276 273 272 270 269 269 267 266 265 264 263 263 263 263 263 264 263 263 262 261 261 261 261 262 262 263 263 264 264 263 263 262 262 262 263 263 263 264 264 265 266 267 268 269
316 318 319 320 320 319 318 317 317 319 321 323 325 327 331 335 338 340 340 342 343 342 341 339 338 335 332 329 326 323 320 317 313 309 305 302 300 298 296 294 292 289 286 284 282 280 277 275 273 271 269 267 265 263 262 261 261 261 262 262 261 261 259 259 258 259 260 260 260 261 261 261 261 261 261 261 261 261 261 262 262 262 263 264 265 265 266
318 319 319 319 318 317 316 317 318 320 322 325 326 327 331 335 338 339 340 341 343 342 340 339 338 335 331 329 326 324 322 319 316 312 308 304 300 297 295 294 294 293 291 290 289 289 287 284 282 279 277 275 272 269 265 263 260 259 258 258 259 259 258 256 256 256 257 257 258 258 258 258 259 259 259 260 260 260 260 261 261 262 263 264 265 266 268
318 318 317 316 314 314 316 318 320 321 323 325 326 328 331 334 336 338 339 341 341 340 338 338 337 334 330 328 326 324 322 320 317 314 311 307 303 300 297 295 293 293 293 292 291 291 291 290 289 287 285 284 281 278 274 269 265 262 258 257 257 257 256 255 254 254 253 254 255 255 255 255 256 257 257 257 258 259 259 260 261 262 263 264 266 267 269
318 317 315 314 314 316 319 321 322 323 324 326 328 329 330 333 335 337 338 339 339 338 337 336 336 334 330 328 325 323 321 320 317 314 312 310 307 305 302 298 295 293 293 292 292 291 290 290 290 290 290 288 287 284 280 276 271 267 262 258 256 257 257 256 254 253 253 252 252 253 253 253 254 255 255 256 256 257 258 259 260 261 263 264 265 266 267
319 318 317 317 319 323 325 325 326 326 327 328 329 329 330 331 333 335 336 336 336 336 336 335 334 332 330 327 324 322 322 321 318 315 313 311 309 308 305 303 301 299 296 294 292 290 289 288 288 290 291 290 287 284 282 279 275 270 265 262 259 259 259 258 257 255 254 253 253 253 253 253 253 253 254 255 255 256 257 258 259 260 262 263 264 265 265
323 322 323 326 328 330 330 330 330 331 331 331 331 331 331 331 331 332 334 334 334 334 334 334 332 330 327 324 323 323 323 321 318 316 314 312 311 310 310 309 309 307 303 299 295 291 288 287 287 288 289 290 288 284 280 278 275 270 266 263 261 259 260 261 260 258 255 253 253 253 253 254 254 254 254 255 256 256 257 258 259 260 261 261 262 262 262
332 332 334 337 337 337 335 334 335 335 334 333 333 332 331 331 331 331 331 332 332 332 332 332 331 329 326 324 323 322 322 320 316 315 315 314 313 313 313 313 316 315 310 305 301 297 292 289 288 288 289 290 288 286 283 280 277 273 268 263 260 259 259 261 262 262 259 255 254 253 253 253 254 254 254 255 255 256 257 257 258 258 258 258 258 258 259
344 344 344 342 340 339 337 336 336 336 335 333 333 332 331 330 329 329 329 330 330 331 331 331 330 329 327 325 323 321 319 318 315 313 313 313 313 313 314 317 322 323 317 310 307 304 299 295 293 291 289 288 286 284 283 280 277 274 271 265 261 260 259 259 259 260 259 257 255 253 252 252 253 253 254 254 254 255 255 255 255 255 255 255 255 255 256
348 346 344 341 339 338 337 336 336 335 334 333 332 332 331 330 329 329 329 329 330 330 330 330 329 328 327 327 325 321 319 316 313 312 313 313 311 311 314 319 324 325 321 316 314 312 308 304 299 295 292 290 287 285 283 278 275 274 273 270 266 263 261 259 258 259 259 258 256 254 252 251 251 252 252 252 252 253 253 253 253 252 252 252 252 252 253
346 344 342 341 340 339 339 338 337 336 334 333 332 332 331 330 329 329 329 328 329 329 329 329 329 328 328 327 325 322 319 316 312 311 313 313 310 306 305 310 316 322 323 321 321 322 320 316 309 302 297 295 295 293 290 285 279 276 275 273 270 266 263 260 259 259 260 260 258 254 251 249 250 250 251 250 250 250 250 249 248 248 247 247 248 249 250
342 342 341 341 341 341 341 340 340 338 336 334 332 331 331 331 329 328 328 327 327 328 328 328 328 328 327 327 324 321 318 315 312 310 313 315 313 307 298 297 304 312 317 318 320 324 328 328 325 318 311 307 305 303 302 298 291 285 281 278 275 272 268 265 263 263 261 260 259 256 253 249 247 247 248 248 247 246 246 244 242 242 243 244 244 246 248
337 337 337 336 337 339 340 340 339 339 337 335 333 332 332 331 329 327 327 327 327 327 328 328 327 327 326 326 324 320 317 313 310 308 309 309 307 305 303 301 303 308 312 313 315 319 325 329 331 330 326 322 317 312 308 305 301 297 291 286 282 278 274 270 267 266 264 262 259 257 255 252 248 247 247 247 246 244 242 240 239 240 241 243 243 245 247
332 333 332 332 333 335 336 336 337 337 337 336 335 333 332 331 329 327 327 327 327 328 328 327 326 326 326 325 324 321 317 313 310 308 303 295 291 293 297 299 301 304 307 307 308 311 315 320 324 327 328 327 325 322 317 313 310 306 301 294 287 283 280 275 271 267 265 264 262 260 258 255 251 248 246 246 246 243 241 239 238 240 242 243 244 246 248
326 328 329 329 331 332 333 333 333 334 335 335 335 334 333 331 328 327 328 328 327 327 326 326 326 326 326 324 322 321 318 314 310 307 301 293 289 289 290 290 293 297 300 300 298 298 301 307 311 314 317 320 320 320 320 319 317 315 313 307 300 291 285 281 277 273 269 266 264 263 260 258 255 251 247 245 244 243 242 240 240 241 242 243 244 246 248
321 323 325 327 330 332 332 332 332 332 333 334 334 334 332 330 328 328 328 328 327 326 326 325 326 326 325 322 319 318 318 316 311 305 299 295 293 292 290 289 290 293 294 293 291 290 291 294 298 301 306 309 311 312 314 315 316 315 314 313 310 305 297 287 281 278 275 273 271 266 262 259 256 253 248 243 242 244 245 245 244 244 244 244 245 246 248
317 319 322 325 328 330 331 332 332 332 332 332 333 333 331 329 328 328 328 328 326 325 326 326 326 325 324 322 320 318 318 318 313 305 299 296 295 295 297 298 297 294 292 291 288 287 287 288 290 293 297 299 301 303 305 306 308 310 310 309 308 308 305 297 288 280 276 274 273 272 269 264 260 255 249 242 240 245 250 251 249 246 244 243 243 245 247
316 317 319 322 325 328 330 331 332 332 331 331 331 332 331 329 327 327 327 327 326 325 325 325 325 324 323 323 321 318 317 316 311 300 290 287 289 294 300 304 303 299 296 292 288 285 286 287 288 289 290 292 294 296 297 298 299 301 303 305 305 304 302 300 297 292 284 277 272 270 270 268 265 261 253 243 239 244 252 256 252 246 242 240 240 242 245
316 317 318 319 323 327 329 331 331 331 331 330 330 331 330 328 326 326 326 326 325 324 324 324 325 324 323 323 320 317 315 314 308 296 284 282 284 290 297 301 302 299 296 292 289 287 287 288 288 288 288 288 288 288 289 290 291 292 294 298 301 301 299 296 295 294 294 291 284 276 271 267 264 263 259 249 241 243 252 258 255 246 240 237 237 239 242
317 316 317 319 322 326 329 330 330 330 330 330 330 329 329 327 326 326 325 325 325 324 324 324 324 323 322 321 320 318 315 312 306 299 293 290 289 291 294 297 296 292 289 289 290 289 288 288 291 293 293 290 287 285 285 285 286 287 288 290 293 296 297 295 293 290 290 292 292 290 286 278 267 261 259 254 247 245 251 257 254 244 236 234 235 237 239
Height
5678 5679 5680 5682 5684 5685 5686 5686 5686 5686 5687 5690 5692 5693 5694 5695 5697 5698 5698 5698 5698 5700 5702 5703 5704 5704 5705 5705 5706 5706 5707 5707 5708 5709 5709 5710 5710 5710 5711 5711 5712 5712 5713 5713 5714 5714 5714 5714 5714 5713 5714 5717 5719 5721 5722 5723 5722 5722 5720 5721 5722 5724 5725 5727 5729 5730 5731 5732 5734 5736 5737 5739 5741 5743 5745 5746 5747 5748 5749 5750 5751 5751 5752 5753 5755 5756 5757
5676 5677 5678 5679 5681 5682 5682 5683 5683 5683 5684 5686 5688 5690 5691 5692 5694 5695 5695 5696 5696 5698 5699 5700 5702 5702 5703 5704 5705 5705 5706 5706 5706 5707 5708 5708 5708 5708 5708 5709 5709 5709 5710 5710 5711 5711 5712 5711 5711 5711 5711 5713 5716 5718 5720 5720 5719 5719 5718 5718 5719 5721 5722 5724 5725 5726 5727 5729 5731 5733 5735 5737 5739 5740 5742 5743 5744 5745 5746 5747 5748 5749 5750 5751 5753 5754 5756
5673 5674 5675 5677 5678 5678 5679 5679 5680 5680 5680 5681 5683 5686 5688 5690 5691 5691 5692 5693 5694 5696 5697 5698 5699 5701 5701 5702 5703 5703 5704 5704 5705 5705 5705 5706 5706 5706 5706 5706 5706 5706 5707 5707 5708 5708 5709 5709 5708 5708 5709 5710 5712 5714 5716 5716 5715 5715 5715 5715 5717 5718 5719 5720 5721 5723 5725 5726 5727 5730 5732 5734 5736 5737 5738 5740 5741 5742 5743 5743 5745 5746 5747 5748 5750 5753 5754
5670 5671 5672 5675 5675 5675 5676 5676 5677 5677 5677 5678 5680 5683 5685 5686 5688 5688 5688 5690 5692 5693 5694 5696 5697 5698 5699 5700 5700 5701 5701 5702 5702 5703 5703 5704 5704 5704 5704 5704 5704 5704 5704 5705 5705 5706 5706 5706 5705 5705 5705 5706 5708 5710 5710 5710 5711 5712 5712 5712 5713 5714 5715 5716 5717 5719 5722 5724 5725 5726 5728 5731 5733 5734 5736 5737 5737 5738 5739 5740 5742 5743 5744 5746 5749 5751 5752
5667 5668 5670 5672 5672 5672 5672 5673 5674 5675 5675 5675 5677 5680 5681 5682 5684 5685 5685 5686 5689 5690 5691 5693 5694 5695 5696 5697 5697 5698 5699 5699 5700 5700 5700 5701 5701 5701 5702 5702 5702 5702 5702 5703 5703 5703 5703 5703 5702 5702 5702 5703 5704 5705 5705 5706 5706 5708 5708 5709 5710 5710 5711 5712 5713 5715 5718 5721 5722 5723 5725 5728 5730 5731 5733 5734 5734 5735 5736 5737 5739 5740 5741 5744 5746 5747 5747
5664 5665 5667 5669 5668 5667 5668 5670 5671 5672 5672 5673 5674 5676 5678 5679 5680 5681 5681 5683 5686 5687 5688 5689 5691 5691 5692 5693 5694 5695 5696 5696 5697 5697 5698 5698 5699 5699 5699 5700 5700 5700 5700 5700 5701 5701 5701 5700 5699 5699 5699 5700 5701 5702 5702 5701 5702 5703 5702 5701 5703 5705 5706 5709 5711 5712 5715 5717 5718 5720 5722 5725 5727 5728 5729 5730 5731 5732 5733 5734 5735 5737 5739 5741 5742 5742 5743
5661 5662 5663 5664 5664 5664 5665 5667 5668 5668 5669 5670 5672 5673 5674 5675 5676 5677 5678 5680 5682 5683 5684 5686 5687 5688 5689 5690 5691 5692 5693 5693 5694 5695 5695 5696 5696 5697 5697 5697 5697 5698 5698 5698 5698 5698 5698 5698 5697 5696 5696 5697 5698 5699 5699 5698 5699 5700 5698 5694 5697 5700 5702 5705 5709 5710 5712 5714 5715 5717 5719 5721 5722 5724 5725 5727 5728 5729 5730 5731 5732 5733 5735 5736 5737 5738 5740
5658 5659 5660 5661 5662 5663 5663 5664 5665 5665 5666 5667 5669 5670 5671 5672 5673 5673 5674 5676 5678 5679 5681 5682 5683 5684 5686 5687 5688 5689 5690 5690 5691 5692 5692 5693 5693 5694 5694 5694 5695 5695 5695 5695 5695 5695 5695 5695 5695 5695 5694 5695 5695 5696 5697 5696 5696 5698 5697 5694 5695 5698 5700 5702 5705 5708 5710 5712 5714 5716 5717 5718 5719 5721 5722 5723 5725 5725 5726 5727 5729 5730 5731 5732 5733 5735 5736
5654 5655 5657 5659 5660 5660 5660 5661 5662 5663 5663 5664 5666 5667 5668 5669 5670 5670 5671 5672 5674 5675 5677 5678 5679 5681 5682 5683 5685 5686 5687 5687 5688 5689 5689 5690 5690 5691 5692 5692 5692 5693 5693 5693 5693 5692 5692 5693 5693 5692 5692 5693 5693 5694 5695 5695 5694 5693 5693 5693 5694 5695 5697 5700 5703 5705 5708 5710 5712 5713 5714 5715 5716 5718 5719 5720 5721 5722 5723 5724 5725 5727 5728 5729 5730 5731 5732
5651 5653 5654 5655 5656 5657 5658 5659 5660 5661 5661 5662 5663 5664 5666 5667 5667 5668 5668 5669 5670 5672 5673 5674 5675 5677 5679 5680 5681 5682 5684 5684 5685 5686 5686 5687 5688 5688 5689 5690 5690 5690 5690 5690 5690 5690 5690 5690 5690 5690 5690 5690 5691 5691 5692 5692 5691 5691 5691 5692 5693 5693 5694 5697 5701 5703 5705 5706 5708 5710 5711 5712 5714 5715 5716 5717 5718 5719 5720 5721 5722 5723 5724 5725 5726 5727 5728
5648 5650 5651 5652 5654 5656 5656 5657 5658 5659 5659 5660 5661 5662 5663 5664 5665 5665 5666 5666 5667 5668 5669 5671 5672 5674 5675 5676 5678 5679 5680 5681 5682 5682 5683 5684 5685 5686 5686 5687 5688 5688 5688 5687 5687 5687 5687 5687 5687 5687 5687 5687 5687 5688 5689 5689 5689 5689 5689 5689 5690 5691 5693 5695 5697 5699 5701 5703 5705 5706 5708 5709 5710 5711 5713 5714 5715 5715 5716 5717 5718 5719 5720 5721 5722 5722 5723
5645 5647 5648 5650 5652 5654 5654 5654 5656 5657 5657 5658 5659 5660 5661 5662 5663 5663 5663 5664 5665 5665 5666 5668 5669 5670 5672 5673 5674 5676 5677 5678 5678 5679 5680 5681 5682 5683 5683 5684 5684 5685 5685 5685 5684 5684 5684 5684 5684 5684 5684 5684 5684 5685 5685 5686 5686 5687 5687 5686 5687 5689 5691 5693 5694 5696 5698 5700 5701 5702 5703 5704 5705 5707 5709 5711 5711 5711 5712 5713 5714 5715 5716 5717 5717 5718 5719
5643 5645 5646 5648 5650 5651 5652 5652 5654 5655 5656 5656 5657 5658 5659 5660 5660 5661 5661 5661 5662 5663 5664 5665 5666 5667 5668 5670 5671 5672 5673 5674 5675 5676 5676 5677 5678 5679 5679 5680 5681 5681 5682 5682 5681 5681 5682 5682 5682 5682 5682 5682 5682 5682 5682 5683 5683 5684 5684 5684 5685 5686 5687 5689 5691 5692 5694 5696 5698 5699 5700 5701 5701 5702 5704 5706 5706 5707 5708 5709 5710 5711 5712 5713 5714 5714 5715
5640 5642 5644 5646 5648 5650 5650 5651 5652 5653 5654 5655 5655 5656 5657 5657 5658 5658 5659 5659 5660 5661 5661 5662 5663 5664 5665 5666 5668 5669 5670 5670 5671 5672 5673 5673 5674 5675 5676 5676 5677 5678 5679 5679 5679 5679 5679 5679 5680 5680 5680 5679 5680 5680 5680 5681 5681 5682 5683 5683 5684 5684 5685 5686 5687 5689 5690 5692 5693 5695 5696 5697 5697 5698 5698 5700 5701 5702 5704 5705 5706 5707 5708 5709 5710 5710 5711
5638 5640 5642 5645 5647 5648 5649 5649 5651 5652 5652 5653 5654 5654 5655 5655 5656 5656 5657 5657 5658 5659 5659 5660 5660 5661 5662 5663 5664 5665 5666 5667 5667 5668 5669 5670 5670 5671 5672 5673 5674 5675 5675 5676 5676 5676 5676 5677 5677 5677 5678 5677 5678 5678 5678 5679 5680 5680 5681 5682 5682 5683 5683 5684 5685 5687 5688 5688 5689 5690 5691 5692 5692 5693 5694 5695 5696 5698 5699 5701 5702 5703 5704 5705 5706 5706 5707
5637 5639 5641 5644 5646 5646 5647 5648 5649 5650 5650 5651 5651 5652 5653 5653 5654 5654 5655 5656 5656 5657 5657 5657 5658 5658 5659 5660 5661 5662 5663 5664 5665 5665 5665 5666 5667 5668 5669 5669 5670 5671 5671 5672 5673 5674 5674 5674 5674 5674 5675 5675 5675 5676 5676 5677 5677 5678 5679 5679 5680 5680 5681 5682 5683 5684 5685 5686 5687 5687 5688 5688 5688 5689 5690 5691 5693 5695 5696 5697 5698 5699 5700 5701 5701 5702 5703
5636 5638 5641 5642 5644 5645 5645 5646 5647 5648 5648 5649 5649 5650 5651 5651 5652 5652 5653 5654 5654 5654 5655 5655 5655 5655 5656 5657 5659 5660 5661 5662 5663 5663 5663 5663 5664 5665 5665 5666 5666 5667 5667 5668 5669 5670 5670 5671 5671 5671 5672 5672 5673 5673 5674 5674 5675 5675 5676 5676 5677 5677 5678 5679 5680 5681 5682 5683 5684 5684 5685 5685 5686 5686 5687 5689 5690 5691 5692 5693 5694 5695 5695 5697 5698 5698 5699
5636 5638 5639 5640 5642 5643 5644 5645 5646 5646 5647 5647 5648 5648 5649 5649 5650 5650 5651 5652 5652 5652 5652 5652 5652 5653 5653 5654 5655 5657 5658 5659 5660 5660 5661 5661 5661 5662 5662 5663 5663 5664 5664 5665 5665 5666 5666 5667 5668 5668 5669 5670 5670 5670 5670 5671 5671 5672 5672 5673 5674 5674 5675 5675 5676 5678 5678 5679 5680 5681 5682 5682 5683 5684 5684 5685 5686 5687 5688 5689 5690 5691 5692 5693 5694 5695 5696
5635 5637 5638 5639 5641 5642 5643 5644 5645 5646 5646 5646 5647 5647 5647 5648 5648 5649 5649 5650 5650 5650 5651 5650 5650 5650 5650 5651 5652 5653 5654 5655 5656 5657 5657 5658 5658 5659 5659 5660 5660 5661 5661 5662 5662 5662 5662 5663 5664 5664 5665 5666 5666 5667 5667 5668 5669 5669 5669 5669 5670 5671 5671 5672 5673 5674 5675 5676 5677 5677 5678 5679 5679 5680 5680 5681 5682 5683 5684 5685 5686 5687 5688 5689 5689 5691 5691
5635 5636 5638 5639 5640 5642 5643 5644 5644 5645 5645 5646 5646 5646 5646 5647 5647 5647 5647 5648 5648 5649 5649 5649 5648 5648 5648 5648 5649 5649 5650 5651 5652 5653 5654 5654 5655 5655 5656 5656 5657 5657 5657 5658 5658 5658 5659 5659 5660 5660 5661 5662 5662 5663 5663 5664 5665 5666 5666 5666 5666 5667 5668 5668 5669 5670 5671 5672 5672 5673 5674 5675 5676 5676 5676 5677 5678 5679 5680 5681 5682 5683 5683 5684 5685 5687 5686
5635 5636 5638 5639 5640 5641 5642 5643 5644 5644 5644 5645 5645 5645 5645 5646 5646 5646 5646 5646 5647 5647 5647 5647 5647 5646 5646 5646 5646 5646 5647 5647 5648 5648 5649 5650 5650 5651 5651 5652 5652 5653 5653 5653 5654 5654 5654 5655 5656 5656 5657 5657 5658 5659 5659 5660 5661 5662 5662 5663 5663 5664 5664 5664 5665 5666 5667 5668 5668 5669 5670 5671 5672 5672 5672 5673 5674 5674 5675 5676 5677 5677 5678 5679 5681 5681 5680
5635 5637 5638 5639 5640 5641 5642 5642 5643 5643 5643 5644 5644 5644 5644 5644 5644 5645 5645 5645 5645 5645 5645 5645 5645 5644 5644 5644 5644 5644 5644 5644 5644 5645 5645 5645 5646 5646 5647 5647 5648 5648 5649 5649 5650 5650 5650 5651 5651 5652 5653 5653 5653 5654 5655 5656 5656 5657 5657 5658 5659 5659 5660 5660 5660 5661 5662 5663 5664 5665 5666 5666 5668 5668 5668 5669 5669 5670 5670 5671 5671 5672 5672 5673 5675 5676 5675
5636 5637 5638 5639 5640 5641 5641 5642 5642 5642 5642 5643 5643 5643 5643 5643 5643 5643 5642 5642 5642 5642 5642 5642 5641 5641 5641 5642 5642 5641 5641 5641 5641 5642 5642 5642 5642 5643 5643 5643 5643 5644 5644 5645 5645 5645 5646 5647 5647 5648 5648 5648 5649 5649 5650 5651 5651 5652 5652 5653 5653 5654 5654 5655 5655 5656 5657 5658 5659 5660 5661 5661 5663 5663 5664 5664 5665 5665 5665 5666 5666 5666 5667 5668 5669 5670 5670
5637 5638 5639 5639 5640 5641 5641 5641 5641 5642 5642 5642 5642 5642 5642 5641 5641 5640 5640 5639 5639 5638 5638 5637 5637 5637 5637 5638 5638 5638 5637 5638 5638 5638 5638 5639 5639 5639 5639 5639 5640 5640 5640 5640 5641 5641 5641 5642 5642 5643 5644 5644 5644 5645 5645 5646 5647 5647 5648 5648 5648 5649 5649 5650 5651 5651 5652 5653 5654 5655 5655 5656 5657 5658 5658 5658 5659 5660 5660 5660 5660 5661 5661 5662 5663 5663 5663
5638 5638 5639 5640 5640 5640 5641 5641 5641 5641 5641 5641 5641 5641 5640 5640 5639 5638 5638 5637 5636 5635 5634 5633 5632 5632 5632 5633 5633 5633 5633 5633 5634 5634 5634 5635 5635 5635 5636 5636 5636 5636 5636 5636 5637 5637 5637 5637 5638 5638 5639 5639 5640 5640 5641 5642 5642 5643 5643 5643 5644 5644 5645 5645 5646 5647 5647 5648 5648 5649 5650 5651 5652 5652 5652 5653 5653 5654 5654 5654 5655 5655 5656 5657 5657 5658 5658
5639 5639 5640 5640 5640 5640 5641 5641 5641 5641 5641 5640 5640 5639 5639 5638 5637 5636 5635 5634 5632 5631 5630 5629 5628 5628 5627 5627 5627 5627 5627 5628 5628 5628 5629 5629 5630 5630 5631 5631 5632 5632 5632 5632 5632 5633 5633 5633 5633 5633 5634 5635 5635 5636 5636 5637 5637 5637 5638 5638 5639 5640 5640 5641 5641 5642 5643 5643 5643 5644 5645 5646 5646 5647 5647 5648 5648 5649 5649 5649 5650 5651 5651 5651 5652 5652 5652
5639 5640 5640 5640 5640 5640 5640 5640 5640 5640 5640 5639 5639 5638 5638 5637 5635 5634 5632 5630 5628 5627 5626 5625 5624 5623 5622 5622 5621 5621 5621 5622 5623 5623 5623 5623 5624 5624 5625 5625 5626 5627 5627 5627 5628 5628 5628 5628 5628 5628 5629 5629 5630 5630 5630 5631 5632 5633 5633 5633 5634 5635 5635 5636 5637 5637 5637 5638 5638 5639 5640 5640 5641 5641 5642 5642 5643 5644 5644 5644 5645 5646 5646 5646 5646 5647 5647
5640 5640 5640 5640 5640 5640 5639 5639 5639 5639 5638 5638 5638 5637 5636 5635 5633 5631 5629 5627 5625 5623 5622 5621 5620 5619 5618 5617 5617 5616 5616 5616 5617 5617 5617 5617 5617 5618 5618 5619 5619 5620 5620 5621 5622 5622 5622 5623 5623 5623 5624 5624 5625 5625 5625 5625 5626 5627 5627 5628 5629 5630 5630 5630 5631 5632 5632 5632 5633 5634 5634 5635 5636 5636 5636 5637 5637 5638 5638 5638 5639 5640 5640 5640 5640 5641 5641
5640 5640 5640 5640 5640 5640 5639 5639 5639 5638 5637 5637 5636 5635 5634 5633 5632 5630 5627 5625 5622 5620 5619 5617 5616 5615 5614 5614 5613 5612 5612 5611 5611 5611 5611 5611 5611 5611 5612 5612 5612 5613 5613 5614 5615 5615 5616 5617 5617 5618 5619 5619 5620 5620 5620 5620 5620 5620 5621 5622 5623 5623 5624 5625 5625 5626 5626 5627 5627 5628 5629 5629 5629 5630 5630 5630 5631 5631 5631 5631 5632 5633 5633 5633 5633 5634 5634
5640 5640 5640 5640 5640 5639 5639 5638 5638 5637 5636 5636 5635 5634 5632 5631 5629 5627 5625 5623 5620 5618 5617 5615 5613 5612 5611 5610 5610 5609 5608 5607 5607 5606 5606 5606 5606 5605 5606 5606 5606 5606 5606 5607 5607 5608 5609 5610 5610 5611 5612 5613 5614 5614 5615 5615 5615 5615 5616 5616 5617 5617 5618 5619 5619 5619 5620 5621 5621 5622 5622 5623 5623 5624 5624 5624 5624 5625 5625 5625 5626 5626 5627 5626 5626 5627 5627
5640 5639 5639 5639 5639 5638 5638 5637 5636 5636 5635 5634 5633 5632 5630 5629 5627 5625 5623 5621 5619 5617 5615 5613 5611 5610 5608 5607 5606 5606 5605 5604 5603 5602 5602 5601 5601 5600 5600 5600 5600 5600 5600 5600 5600 5600 5601 5602 5603 5604 5605 5606 5606 5607 5607 5608 5609 5610 5611 5612 5612 5612 5612 5613 5613 5613 5613 5614 5614 5615 5616 5617 5617 5618 5618 5618 5618 5618 5619 5619 5619 5620 5620 5620 5620 5620 5620
5639 5639 5638 5638 5637 5636 5636 5635 5635 5634 5633 5632 5630 5629 5628 5626 5624 5622 5620 5618 5616 5614 5613 5611 5609 5607 5606 5604 5603 5602 5601 5600 5600 5599 5598 5597 5596 5596 5595 5595 5594 5594 5594 5594 5593 5593 5594 5594 5595 5595 5596 5597 5598 5599 5599 5600 5602 5603 5605 5606 5607 5608 5608 5608 5608 5608 5608 5608 5609 5609 5610 5610 5611 5611 5612 5612 5612 5613 5613 5613 5614 5614 5614 5615 5615 5614 5615
5638 5638 5637 5636 5636 5635 5634 5634 5633 5632 5631 5630 5628 5626 5625 5624 5622 5620 5618 5616 5614 5612 5611 5609 5607 5605 5604 5602 5601 5599 5598 5597 5596 5595 5594 5594 5593 5592 5591 5590 5590 5589 5589 5588 5588 5588 5588 5587 5587 5587 5588 5589 5589 5590 5591 5592 5593 5595 5597 5599 5599 5601 5601 5602 5601 5602 5603 5603 5603 5604 5604 5605 5605 5606 5606 5606 5607 5607 5607 5608 5608 5609 5609 5609 5609 5610 5610
5637 5636 5635 5635 5634 5633 5633 5632 5631 5630 5629 5627 5626 5625 5623 5622 5620 5618 5616 5614 5612 5610 5609 5607 5605 5603 5602 5600 5599 5597 5596 5595 5594 5593 5591 5590 5589 5588 5587 5586 5585 5584 5584 5584 5583 5582 5582 5582 5581 5581 5581 5581 5581 5581 5582 5583 5584 5586 5588 5589 5590 5591 5593 5594 5594 5595 5596 5596 5597 5598 5599 5599 5600 5600 5600 5601 5601 5602 5602 5603 5603 5603 5604 5604 5604 5605 5605
5635 5635 5634 5633 5633 5632 5631 5630 5629 5628 5627 5625 5624 5623 5621 5620 5618 5616 5614 5613 5610 5608 5606 5605 5603 5602 5600 5599 5597 5596 5594 5593 5591 5590 5589 5587 5586 5585 5584 5583 5582 5580 5580 5579 5579 5578 5577 5576 5576 5576 5575 5574 5574 5574 5574 5575 5576 5578 5579 5580 5580 5581 5582 5584 5586 5587 5588 5589 5590 5591 5591 5592 5593 5594 5594 5595 5595 5596 5597 5597 5597 5598 5598 5599 5599 5599 5599
5634 5634 5633 5632 5631 5630 5629 5628 5627 5626 5624 5623 5622 5621 5619 5618 5616 5614 5613 5611 5609 5607 5605 5603 5602 5600 5598 5597 5595 5594 5592 5591 5589 5587 5586 5585 5583 5582 5581 5580 5579 5578 5576 5576 5575 5574 5573 5572 5571 5571 5570 5569 5569 5568 5569 5569 5570 5570 5571 5572 5572 5572 5573 5575 5577 5578 5579 5581 5583 5583 5583 5585 5586 5587 5588 5588 5589 5590 5591 5591 5591 5592 5593 5593 5593 5593 5593
5633 5632 5631 5631 5630 5628 5627 5626 5625 5624 5622 5621 5620 5619 5617 5616 5614 5613 5611 5609 5607 5605 5603 5601 5600 5599 5597 5595 5594 5592 5590 5589 5587 5585 5583 5582 5580 5579 5578 5577 5576 5575 5573 5572 5571 5571 5569 5568 5567 5567 5566 5565 5565 5564 5564 5564 5565 5565 5565 5565 5565 5566 5566 5568 5569 5570 5572 5574 5575 5575 5576 5578 5579 5580 5580 5582 5582 5583 5584 5585 5585 5586 5587 5588 5588 5588 5588
5631 5630 5630 5629 5628 5627 5626 5624 5623 5622 5620 5619 5618 5617 5615 5614 5612 5611 5609 5607 5606 5604 5602 5600 5598 5596 5595 5593 5591 5590 5588 5586 5585 5583 5581 5579 5578 5576 5575 5573 5573 5572 5570 5569 5568 5567 5566 5565 5564 5563 5562 5562 5561 5560 5560 5560 5561 5561 5561 5561 5561 5562 5562 5562 5563 5564 5565 5567 5568 5568 5569 5571 5572 5573 5574 5575 5576 5577 5578 5579 5580 5581 5581 5582 5583 5583 5583
5630 5629 5628 5627 5626 5625 5624 5623 5621 5620 5619 5617 5616 5615 5613 5612 5610 5609 5607 5606 5604 5602 5600 5598 5596 5594 5593 5591 5589 5588 5586 5584 5582 5580 5579 5577 5575 5573 5572 5570 5570 5569 5567 5566 5565 5564 5563 5562 5561 5560 5559 5558 5558 5557 5557 5557 5557 5557 5557 5557 5558 5558 5558 5557 5557 5558 5559 5561 5562 5562 5563 5565 5566 5567 5568 5569 5570 5571 5572 5573 5574 5575 5576 5576 5577 5577 5578
5629 5628 5627 5626 5625 5624 5622 5621 5620 5618 5617 5616 5614 5613 5612 5610 5608 5607 5605 5604 5602 5600 5598 5596 5595 5593 5591 5588 5587 5585 5584 5582 5580 5578 5576 5574 5573 5571 5569 5568 5567 5566 5565 5563 5562 5561 5560 5559 5558 5557 5556 5555 5555 5554 5554 5555 5554 5554 5554 5555 5555 5554 5554 5554 5553 5553 5555 5556 5557 5557 5559 5560 5560 5561 5562 5563 5564 5565 5566 5567 5569 5570 5570 5571 5572 5572 5573
5627 5626 5625 5624 5623 5622 5621 5619 5618 5617 5615 5614 5613 5611 5610 5608 5606 5605 5603 5602 5600 5598 5596 5594 5592 5590 5588 5587 5584 5583 5581 5579 5578 5576 5574 5572 5570 5569 5567 5566 5565 5564 5563 5561 5559 5558 5557 5556 5555 5554 5553 5553 5552 5552 5551 5552 5551 5551 5551 5551 5552 5551 5551 5551 5550 5550 5550 5551 5552 5553 5555 5556 5555 5556 5557 5559 5560 5561 5562 5563 5564 5565 5566 5566 5567 5568 5569
5626 5625 5624 5623 5622 5621 5619 5618 5616 5615 5614 5612 5611 5609 5608 5606 5604 5603 5601 5599 5597 5596 5594 5592 5590 5588 5586 5584 5582 5580 5578 5576 5575 5573 5572 5570 5568 5567 5565 5564 5563 5562 5561 5559 5558 5557 5555 5554 5553 5552 5551 5550 5550 5549 5549 5549 5548 5548 5548 5548 5548 5548 5548 5548 5547 5547 5547 5548 5548 5549 5551 5551 5551 5552 5553 5554 5555 5557 5558 5559 5560 5561 5561 5562 5563 5564 5565
5625 5624 5623 5622 5621 5619 5618 5617 5615 5613 5612 5610 5609 5607 5606 5604 5602 5600 5599 5597 5595 5593 5592 5590 5588 5586 5584 5582 5580 5577 5575 5573 5572 5570 5569 5568 5566 5565 5563 5562 5561 5560 5559 5558 5556 5555 5554 5552 5551 5550 5549 5549 5548 5547 5547 5546 5546 5545 5545 5545 5545 5545 5545 5545 5545 5545 5545 5545 5545 5546 5546 5547 5548 5549 5549 5551 5552 5553 5554 5555 5556 5557 5558 5559 5560 5561 5561
5624 5623 5622 5621 5620 5618 5617 5615 5613 5612 5610 5609 5607 5605 5603 5602 5600 5598 5596 5595 5593 5591 5589 5587 5585 5583 5581 5579 5577 5575 5573 5571 5570 5568 5567 5565 5564 5563 5562 5561 5560 5559 5558 5556 5555 5554 5553 5551 5550 5549 5548 5547 5546 5545 5544 5544 5543 5543 5542 5542 5541 5541 5541 5541 5541 5542 5542 5542 5542 5542 5543 5544 5545 5545 5546 5547 5548 5549 5550 5552 5553 5554 5555 5556 5557 5557 5558
5623 5622 5621 5619 5618 5617 5615 5614 5612 5610 5609 5607 5605 5603 5601 5600 5598 5596 5594 5592 5590 5588 5587 5585 5583 5581 5579 5577 5575 5572 5570 5569 5567 5566 5565 5564 5562 5561 5560 5559 5558 5557 5556 5554 5554 5553 5551 5550 5549 5548 5547 5546 5545 5544 5543 5542 5542 5541 5540 5539 5539 5538 5538 5538 5538 5538 5538 5539 5539 5539 5540 5541 5542 5542 5543 5544 5545 5546 5547 5548 5549 5550 5552 5553 5553 5554 5555
5621 5620 5619 5618 5617 5615 5614 5612 5610 5609 5607 5605 5603 5601 5599 5597 5596 5594 5592 5590 5588 5586 5584 5582 5580 5578 5576 5574 5572 5570 5568 5567 5565 5564 5563 5562 5561 5559 5558 5556 5555 5554 5554 5553 5552 5551 5550 5549 5548 5547 5546 5545 5544 5543 5542 5541 5540 5539 5538 5537 5537 5536 5536 5535 5535 5535 5535 5536 5536 5536 5537 5537 5538 5539 5540 5541 5542 5543 5544 5545 5546 5547 5548 5549 5550 5551 5551
5620 5619 5618 5616 5615 5613 5612 5610 5608 5607 5605 5603 5601 5599 5597 5595 5593 5591 5590 5588 5586 5583 5581 5580 5578 5576 5574 5572 5570 5568 5567 5565 5563 5561 5560 5558 5558 5557 5556 5554 5553 5552 5551 5551 5550 5549 5548 5547 5546 5545 5544 5543 5542 5541 5540 5539 5539 5538 5537 5536 5535 5534 5534 5533 5533 5533 5533 5533 5533 5534 5534 5534 5535 5536 5537 5538 5539 5540 5541 5542 5543 5544 5545 5546 5547 5548 5548
5618 5617 5616 5614 5613 5611 5610 5608 5606 5604 5603 5601 5599 5597 5595 5593 5591 5589 5587 5585 5583 5581 5579 5577 5575 5573 5572 5570 5567 5566 5564 5563 5561 5558 5557 5555 5554 5554 5553 5551 5550 5549 5548 5548 5547 5546 5546 5545 5544 5543 5542 5541 5541 5540 5539 5538 5537 5536 5535 5534 5533 5533 5532 5531 5531 5530 5530 5530 5530 5531 5531 5531 5532 5532 5534 5535 5536 5537 5538 5539 5540 5541 5542 5543 5543 5544 5545
5616 5615 5613 5612 5610 5609 5607 5606 5604 5602 5600 5598 5596 5595 5593 5590 5588 5586 5584 5582 5580 5578 5576 5574 5572 5570 5568 5567 5565 5563 5561 5560 5558 5556 5554 5552 5551 5550 5549 5549 5547 5546 5545 5545 5544 5544 5543 5542 5541 5541 5540 5539 5538 5537 5537 5536 5535 5534 5533 5533 5532 5531 5530 5530 5529 5528 5528 5528 5528 5528 5528 5528 5529 5529 5530 5531 5532 5534 5535 5535 5536 5537 5538 5539 5540 5540 5541
5613 5612 5611 5610 5608 5607 5605 5603 5601 5599 5597 5595 5594 5592 5590 5588 5585 5583 5581 5579 5577 5575 5573 5571 5569 5567 5565 5563 5562 5560 5558 5557 5556 5554 5552 5550 5548 5547 5546 5545 5544 5543 5541 5541 5541 5540 5540 5539 5538 5538 5537 5536 5535 5535 5534 5533 5532 5532 5531 5530 5530 5529 5528 5528 5527 5526 5526 5525 5525 5525 5525 5525 5526 5526 5527 5527 5528 5530 5531 5531 5532 5533 5534 5535 5536 5537 5537
5610 5609 5608 5607 5606 5604 5602 5600 5598 5597 5595 5593 5591 5589 5587 5585 5583 5580 5578 5576 5574 5572 5569 5567 5566 5564 5562 5560 5558 5557 5555 5553 5552 5551 5549 5547 5546 5544 5543 5542 5541 5540 5538 5537 5537 5537 5536 5536 5535 5534 5533 5533 5532 5531 5531 5530 5530 5529 5528 5528 5527 5526 5526 5525 5525 5524 5524 5523 5523 5522 5522 5522 5522 5523 5523 5524 5524 5525 5526 5527 5528 5528 5529 5531 5532 5533 5534
5608 5607 5605 5604 5603 5601 5600 5598 5596 5594 5592 5590 5588 5586 5584 5582 5579 5577 5575 5573 5570 5568 5566 5564 5562 5560 5559 5557 5555 5553 5551 5550 5548 5547 5545 5544 5542 5541 5539 5538 5537 5536 5535 5534 5533 5533 5533 5532 5532 5531 5530 5529 5528 5528 5527 5527 5526 5526 5525 5525 5524 5524 5523 5522 5522 5522 5521 5521 5520 5520 5519 5519 5519 5519 5519 5520 5521 5521 5522 5523 5524 5524 5526 5527 5528 5529 5530